sat.trackr.live / text

‹ back to catalog

STARLINK-3184

NORAD 51143 · 2022-005AR

PAYLOAD ACTIVE UNKNOWN

§ Identity

Operator
Country
US
Launch date
2022-01-19
Launch site
AFETR
Launch vehicle
Mass (kg)
RCS (m²)

Purposes: comms

External: N2YO · Heavens-Above · Gunter

§ Orbital elements

Epoch: 2026-09-20T04:14:31.225056Z

Period
93.85 min
Inclination
53.1589°
Eccentricity
0.0001288
Mean motion
15.34387768 rev/d
Perigee alt
461.9 km
Apogee alt
463.6 km
Semi-major
6,840.9 km
B*
4.1769e-5
RAAN
139.3416°
Arg perigee
89.3356°
Mean anomaly
270.7794°
Rev number
25,818

§ Raw data

STARLINK-31841 51143U 22005AR  26263.17675029  .00001035  00000+0  41769-4 0  99982 51143  53.1589 139.3416 0001288  89.3356 270.7794 15.34387768258189

JSON: /api/v1/satellites/51143 · /tle

For live sub-satellite position, see the globe view (requires WebGL).

§ Visibility from observer

Set your observer location to see the next 7 days of passes ≥ 10°. The values pass through the URL so the page stays shareable.

No JS? Fill the form by hand. The geolocation button needs JavaScript.